Location: Nordegg
(52.4712°N, 116.0743°W)
Time: 07:14:51
(UTC+00:00)

Envisat - Pass Details

Date: 08 December 2021
Orbit: 764 x 766 km, 98.2° (Epoch: 25 January)

Event Time Altitude Azimuth Distance (km) Brightness Sun altitude
Rises 00:59:52 0° 206° (SSW) 3,223 7.0 -12.6°
Reaches altitude 10° 01:02:43 10° 222° (SW) 2,303 6.5 -13.0°
Maximum altitude 01:06:30 21° 271° (W) 1,682 5.7 -13.5°
Drops below altitude 10° 01:10:19 10° 319° (NW) 2,316 5.8 -14.1°
Sets 01:13:12 0° 336° (NNW) 3,248 6.3 -14.5°
